Flag for Germany Weather past 2 weeks in Worms, Rhineland-Palatinate, Germany

Now
72 °F

Scattered clouds.


Feels Like: 75 °F
Forecast: 57 / 85 °F
Wind: 7 mph from Northwest

Location: Baden Wurttemberg - Neuostheim

Current Time: Aug 4, 2015 at 10:31:25 PM

Latest Report: Aug 4, 2015 at 9:20 PM


Visibility: N/A

Pressure: 30.07 "Hg

Humidity: 69%

Dew point: 61 °F

Location of WormsLocation

Historic Weather in Worms — Graph

°F

Worms temperature yesterday

Maximum temperature yesterday: 91 °F (at 5:20 PM)
Minimum temperature yesterday: 61 °F (at 5:50 AM)
Average temperature yesterday: 82 °F

Past Weeks' High & Low Weather Summary

 TemperatureHumidityPressure
High93 °F (Jul 22, 3:50 PM)94% (Jul 27, 8:50 AM)30.12 "Hg (Jul 27, 8:50 AM)
Low50 °F (Jul 30, 5:50 AM)22% (Aug 3, 3:50 PM)29.65 "Hg (Jul 24, 7:50 PM)
Average73 °F51%29.92 "Hg
* Reported Jul 20 9:20 PM — Aug 4 9:20 PM, Worms, Weather by CustomWeather, © 2015

Note: Actual official high and low records may vary slightly from our data, if they occured in-between our weather recording intervals... More about our weather records

Advertising

Worms weather history for previous 24 hours

 ConditionsComfort  
Time TempWeatherWind HumidityBarometerVisibility
9:20 PM
Tue, Aug 4
72 °FScattered clouds.7 mph69%30.07 "HgN/A
8:50 PM72 °FSunny.7 mph69%30.07 "Hg10 mi
8:20 PM72 °FPassing clouds.8 mph69%30.04 "HgN/A
7:50 PM72 °FBroken clouds.9 mph69%30.04 "HgN/A
7:20 PM73 °FBroken clouds.6 mph74%30.04 "HgN/A
6:50 PM73 °FPartly sunny.5 mph78%30.04 "HgN/A
6:20 PM70 °FBroken clouds.7 mph88%30.01 "HgN/A
5:50 PM70 °FMild.8 mph88%30.01 "Hg3 mi
5:20 PM73 °FScattered showers. Mostly cloudy.7 mph74%30.01 "HgN/A
4:50 PM73 °FPartly sunny.7 mph74%30.01 "HgN/A
4:20 PM73 °FPartly sunny.6 mph74%30.01 "HgN/A
3:50 PM72 °FBroken clouds.8 mph73%30.01 "HgN/A
3:20 PM72 °FScattered clouds.7 mph78%30.01 "HgN/A
2:50 PM70 °FPartly sunny.6 mph83%30.01 "HgN/A
2:20 PM70 °FScattered clouds.7 mph83%30.01 "HgN/A
1:50 PM72 °FLight rain. Partly sunny.12 mph69%30.01 "HgN/A
1:20 PM77 °FLight rain. Partly sunny.14 mph54%29.98 "HgN/A
12:50 PM79 °FSunny.12 mph48%29.95 "Hg10 mi
12:20 PM82 °FPassing clouds.16 mph42%29.95 "HgN/A
11:50 AM84 °FSunny.17 mph37%29.95 "Hg10 mi
11:20 AM82 °FPassing clouds.8 mph45%29.92 "HgN/A
10:50 AM81 °FPassing clouds.7 mph48%29.92 "HgN/A
10:20 AM79 °FPassing clouds.10 mph48%29.89 "HgN/A
9:50 AM81 °FPassing clouds.10 mph42%29.89 "HgN/A
9:20 AM81 °FPassing clouds.7 mph42%29.86 "HgN/A
8:50 AM77 °FSunny.3 mph51%29.89 "Hg10 mi
8:20 AM73 °FSunny.3 mph57%29.89 "Hg10 mi
7:50 AM72 °FSunny.2 mph57%29.89 "Hg10 mi
7:20 AM70 °FSunny.2 mph69%29.89 "Hg10 mi
6:50 AM66 °FClear.2 mph73%29.89 "Hg10 mi
6:20 AM63 °FClear.No wind83%29.89 "Hg10 mi
5:50 AM64 °FClear.No wind78%29.89 "Hg10 mi
Weather by CustomWeather, © 2015

See weather overviewHow to use our weather pages